Location: Gro�wechsungen
(51.4926°N, 10.6901°E)
Time: 08:44:30
(UTC+00:00)

SPOT 3 Rocket - Pass Details

Date: 26 January 2021
Orbit: 780 x 794 km, 98.7° (Epoch: 24 February)

Event Time Altitude Azimuth Distance (km) Brightness Sun altitude
Exits shadow 20:26:47 12° 332° (NNW) 2,179 6.3 -41.3°
Drops below altitude 10° 20:27:14 10° 334° (NNW) 2,349 6.5 -41.4°
Sets 20:29:41 0° 341° (NNW) 3,283 7.3 -41.7°
